Regional Weather Roundup
Issued by NWS

Home | Current Version | Previous Version | Text Only | Print | Product List | Glossary On
Versions: 1 2 3 4 5 6 7 8 9 10 11 12 13 14 15 16 17 18 19 20 21 22 23 24 25 26 27 28 29 30 31 32 33 34 35 36 37 38 39 40 41 42 43 44 45 46 47 48 49 50
000
ASUS43 KDTX 170410
RWRMI
MICHIGAN HOURLY REGIONAL WEATHER ROUNDUP
NATIONAL WEATHER SERVICE DETROIT/PONTIAC MI
1200 AM EDT THU AUG 17 2017

NOTE: "FAIR" INDICATES FEW OR NO CLOUDS BELOW 12,000 FEET WITH NO
SIGNIFICANT WEATHER AND/OR OBSTRUCTION TO VISIBILITY.

MIZ047>049-052>055-059>063-066>070-074>076-081>083-170500-
SOUTHEAST LOWER MICHIGAN

CITY           SKY/WX    TMP DP  RH WIND       PRES   REMARKS
ADRIAN         CLOUDY    70  61  73 E6        29.99F
ALMA           CLOUDY    71  62  72 E8        29.96F
ANN ARBOR      PTCLDY    70  62  76 E3        29.99F
BAD AXE        PTCLDY    66  61  83 E5        30.02F
CARO           CLEAR     65  56  72 E3        30.00F
DETROIT CITY   CLOUDY    71  61  70 SE8       30.01F
DETROIT        CLOUDY    72  61  68 E5        30.01S
FLINT          PTCLDY    70  59  68 SE7       29.99F
GROSSE ILE     CLOUDY    71  62  74 SE5       29.99F
HILLSDALE      PTCLDY    70  59  68 E8        29.98F
HOWELL         CLOUDY    70  58  64 SE9       29.99F

CITY           SKY/WX    TMP DP  RH WIND       PRES   REMARKS
JACKSON        CLOUDY    72  61  68 E10       29.98F
LAMBERTVILLE   CLOUDY    71  60  70 E3        29.98S
LANSING        CLOUDY    73  57  57 SE9G20    29.97F
LAPEER         FAIR      67  60  79 CALM      30.01F
MASON          CLOUDY    72  59  64 SE10      29.97F
MONROE         CLOUDY    74  63  66 E6        29.99S
MT. CLEMENS    CLEAR     71  63  77 SE8       30.00F
PONTIAC        CLOUDY    72  57  59 SE9       30.00F
PORT HOPE        N/A     72  64  76 SE15      30.01S
PORT HURON     CLEAR     66  59  77 SE3       30.02F
TRI CITIES     CLOUDY    69  62  78 E10       29.98F
MIDLAND        FAIR      71  60  67 E7        29.97F
TROY           CLOUDY    73  56  56 CALM      30.03S
SAGINAW HB     PTCLDY    66  59  77 E6        29.98F
$$
MIZ043>046-050>051-056>058-064>065-071>073-077>080-170500-
SOUTHWEST LOWER MICHIGAN

CITY           SKY/WX    TMP DP  RH WIND       PRES   REMARKS
BATTLE CREEK   MOCLDY    76  65  68 SE10      29.95F
BENTON HARBOR  CLOUDY    79  66  64 SE6       29.88F
BIG RAPIDS     MOCLDY    70  62  77 E6        29.93F
COLDWATER      CLOUDY    74  63  68 SE8       29.96S
FREMONT        MOCLDY    75  64  67 E6        29.89F
HOLLAND        CLOUDY    77  67  71 SE7       29.90F
GRAND RAPIDS   CLOUDY    77  67  71 SE13      29.92F
IONIA          FAIR      73  62  67 SE10      29.93F
KALAMAZOO      PTCLDY    77  65  66 SE9       29.93F
LUDINGTON      MOCLDY    72  65  78 E8        29.87F
MARSHALL       PTCLDY    73  62  68 SE7       29.96S
MOUNT PLEASANT CLOUDY    72  62  70 E7        29.96F
MUSKEGON       CLOUDY    79  65  62 SE10      29.88F
SOUTH HAVEN    CLOUDY    78  69  75 SE5       29.89F
$$
MIZ016>042-170500-
NORTHERN LOWER MICHIGAN

CITY           SKY/WX    TMP DP  RH WIND       PRES   REMARKS
ALPENA         PTCLDY    63  62  97 SE5       30.03S
BEAVER ISLAND  CLOUDY    69  64  83 SE10G17   29.94F
BELLAIRE       CLOUDY    70  59  67 SE7       29.94F
CADILLAC       CLOUDY    69  62  77 E9        29.96F
CHARLEVOIX     CLOUDY    71  62  74 E8        29.97F
FRANKFORT      CLOUDY    73  66  79 E3        29.89F
GAYLORD        MOCLDY    64  56  75 SE8       30.00F
GRAYLING       PTCLDY    64  57  78 E6        30.00F
HARBOR SPRINGS MOCLDY    68  61  78 E7        29.96F
HOUGHTON LAKE  MOCLDY    67  59  75 E9        29.99F
OSCODA         MOCLDY    69  62  79 S6        30.01S
PELLSTON       PTCLDY    67  61  81 SE8       29.98F
ROGERS CITY    PTCLDY    63  59  89 SE6       30.02F
TRAVERSE CITY  CLOUDY    73  62  68 SE8       29.91F
$$
MIZ007>008-015-170500-
EASTERN UPPER MICHIGAN

CITY           SKY/WX    TMP DP  RH WIND       PRES   REMARKS
KINROSS        CLOUDY    63  59  87 SE12      30.02S
MACKINAC ISLAN MOCLDY    65  61  86 E12       29.99F
NEWBERRY       PTCLDY    60  60  97 E7        29.97F
S. S. MARIE    MOCLDY    65  60  84 E5        30.02S
MUNISING         N/A     65  62  90 S6        29.91F
$$
MIZ004>006-011>014-085-170500-
CENTRAL UPPER MICHIGAN

CITY           SKY/WX    TMP DP  RH WIND       PRES   REMARKS
MANISTIQUE     CLOUDY    66  60  81 E9        29.92F
ESCANABA       CLOUDY    66  65  96 NE5       29.89F
MENOMINEE      CLOUDY    69  65  86 E7        29.87F
SAWYER-GWINN   PTCLDY    62  59  90 SE3       29.93F
$$
MIZ001>003-009>011-084-170500-
WESTERN UPPER MICHIGAN

CITY           SKY/WX    TMP DP  RH WIND       PRES   REMARKS
IRON MOUNTAIN  CLOUDY    63  57  81 SE6       29.88F
HOUGHTON       MOCLDY    58  56  93 E8        29.89F
COPPER HARBOR    N/A     63  56  78 S13G20    29.91F
IRONWOOD       MOCLDY    67  58  72 E8        29.84
$$

ABBREVIATIONS USED IN REMARKS
   TC - TEMPERATURE IN CELSIUS
  WCI - WIND CHILL INDEX
   HX - HEAT INDEX
  VSB - VISIBILITY





USA.gov is the U.S. government's official web portal to all federal, state and local government web resources and services.